QTR4E OTHH-KJFK

Flight info

Callsign QTR4E
Flight time N/A
Altitude 29000
Route DATRI L564 MIGMA/N0520F280 M628 AMBAG/N0505F340 M321 KSA T503 TAMRO/N0497F360 T503 OVANO L768 FIRAS R655 KTN R785 NIKAS L619 VESAR UN135 IMR UN127 RIKSO DCT DISOR DCT LONTA/N0482F380 UL608 DOLEV DCT GORPA DCT MODSA DCT BABEG DCT LIRSU DCT DENUT L610 KOPUL Q60 OKSAW DCT TEWXI DCT VATRY DCT DOGAL/M085F400 DCT 55N020W 56N030W 56N040W 55N050W DCT LOMSI/N0488F400 N666A MIILS DCT ENE PARCH4
Aircraft A359/H-SDE2E3GHIJ1J3J4J5LM1ORWXY/LB1D1

Departure

Time N/A
Airport Hamad International Airport (OTHH)

Arrival

Time 2026-05-05 23:27
Airport John F. Kennedy International Airport (KJFK)
Time Latitude Longitude Altitude Speed Heading
2026-05-05 20:26 54.86432 -50.55687 39699 ft 489 kts 245°
2026-05-05 20:26 54.85094 -50.61112 39693 ft 490 kts 245°
2026-05-05 20:27 54.82400 -50.71988 39692 ft 491 kts 245°
2026-05-05 20:27 54.79717 -50.82766 39698 ft 491 kts 245°
2026-05-05 20:28 54.77008 -50.93596 39684 ft 489 kts 245°
2026-05-05 20:28 54.74310 -51.04327 39680 ft 488 kts 245°
2026-05-05 20:29 54.71589 -51.15099 39679 ft 488 kts 245°
2026-05-05 20:29 54.68861 -51.25842 39676 ft 488 kts 245°
2026-05-05 20:30 54.66119 -51.36591 39678 ft 488 kts 245°
2026-05-05 20:30 54.63376 -51.47294 39663 ft 486 kts 245°
2026-05-05 20:31 54.60629 -51.57963 39665 ft 486 kts 244°
2026-05-05 20:31 54.57874 -51.68607 39661 ft 486 kts 244°
2026-05-05 20:32 54.55109 -51.79241 39659 ft 486 kts 244°
2026-05-05 20:32 54.52331 -51.89875 39656 ft 486 kts 245°
2026-05-05 20:33 54.49548 -52.00479 39653 ft 487 kts 244°
2026-05-05 20:33 54.46748 -52.11100 39653 ft 487 kts 244°
2026-05-05 20:34 54.43944 -52.21681 39654 ft 487 kts 244°
2026-05-05 20:34 54.41151 -52.32177 39651 ft 487 kts 244°
2026-05-05 20:35 54.38328 -52.42733 39648 ft 487 kts 244°
2026-05-05 20:35 54.35489 -52.53300 39647 ft 488 kts 244°
2026-05-05 20:36 54.32640 -52.63858 39650 ft 488 kts 244°
2026-05-05 20:36 54.29783 -52.74396 39651 ft 488 kts 244°
2026-05-05 20:37 54.26919 -52.84911 39645 ft 488 kts 244°
2026-05-05 20:37 54.24041 -52.95429 39644 ft 488 kts 244°
2026-05-05 20:38 54.21172 -53.05866 39654 ft 488 kts 244°
2026-05-05 20:38 54.18266 -53.16388 39648 ft 489 kts 244°
2026-05-05 20:39 54.15355 -53.26884 39645 ft 490 kts 244°
2026-05-05 20:39 54.12432 -53.37373 39641 ft 489 kts 244°
2026-05-05 20:40 54.09503 -53.47835 39641 ft 488 kts 244°
2026-05-05 20:40 54.06571 -53.58264 39642 ft 488 kts 244°
2026-05-05 20:41 54.03628 -53.68686 39645 ft 488 kts 244°
2026-05-05 20:41 54.00699 -53.79009 39641 ft 488 kts 244°
2026-05-05 20:42 53.97744 -53.89379 39642 ft 487 kts 244°
2026-05-05 20:42 53.94786 -53.99711 39642 ft 486 kts 244°
2026-05-05 20:43 53.91827 -54.10004 39646 ft 485 kts 244°
2026-05-05 20:43 53.88856 -54.20294 39644 ft 485 kts 244°
2026-05-05 20:44 53.85883 -54.30545 39642 ft 486 kts 244°
2026-05-05 20:44 53.82885 -54.40836 39642 ft 485 kts 244°
2026-05-05 20:45 53.78400 -54.56150 39643 ft 484 kts 244°
2026-05-05 20:45 53.75402 -54.66331 39645 ft 484 kts 244°
2026-05-05 20:46 53.72395 -54.76498 39644 ft 484 kts 244°
2026-05-05 20:46 53.69374 -54.86670 39640 ft 484 kts 244°
2026-05-05 20:47 53.66357 -54.96785 39645 ft 483 kts 244°
2026-05-05 20:47 53.63329 -55.06893 39644 ft 483 kts 244°
2026-05-05 20:48 53.60291 -55.16994 39642 ft 483 kts 243°
2026-05-05 20:48 53.57244 -55.27082 39643 ft 483 kts 243°
2026-05-05 20:49 53.54209 -55.37083 39648 ft 483 kts 243°
2026-05-05 20:49 53.51144 -55.47147 39642 ft 484 kts 243°
2026-05-05 20:50 53.48567 -55.55571 39642 ft 484 kts 243°
2026-05-05 20:50 53.44983 -55.67242 39631 ft 484 kts 243°
2026-05-05 20:51 53.41892 -55.77264 39617 ft 484 kts 243°
2026-05-05 20:51 53.38796 -55.87257 39621 ft 483 kts 243°
2026-05-05 20:52 53.36218 -55.95547 39619 ft 482 kts 243°
2026-05-05 20:52 53.33112 -56.05498 39609 ft 482 kts 243°
2026-05-05 20:53 53.29999 -56.15432 39606 ft 482 kts 243°
2026-05-05 20:53 53.26877 -56.25352 39606 ft 482 kts 243°
2026-05-05 20:54 53.23758 -56.35220 39602 ft 479 kts 243°
2026-05-05 20:54 53.20638 -56.45055 39602 ft 479 kts 243°
2026-05-05 20:55 53.17520 -56.54844 39593 ft 477 kts 243°
2026-05-05 20:55 53.14415 -56.64551 39591 ft 477 kts 243°
2026-05-05 20:56 53.11279 -56.74304 39602 ft 476 kts 242°
2026-05-05 20:56 53.07506 -56.83360 39604 ft 477 kts 233°
2026-05-05 20:57 53.03334 -56.91954 39605 ft 478 kts 232°
2026-05-05 20:57 52.99092 -57.00457 39614 ft 478 kts 232°
2026-05-05 20:58 52.94852 -57.08940 39606 ft 478 kts 232°
2026-05-05 20:58 52.90640 -57.17379 39619 ft 478 kts 232°
2026-05-05 20:59 52.86395 -57.25870 39622 ft 478 kts 232°
2026-05-05 20:59 52.82139 -57.34356 39627 ft 478 kts 232°
2026-05-05 21:00 52.77882 -57.42814 39626 ft 478 kts 231°
2026-05-05 21:00 52.73619 -57.51255 39644 ft 479 kts 231°
2026-05-05 21:01 52.69349 -57.59680 39644 ft 479 kts 231°
2026-05-05 21:01 52.65072 -57.68092 39646 ft 479 kts 231°
2026-05-05 21:02 52.60785 -57.76494 39643 ft 479 kts 231°
2026-05-05 21:02 52.56496 -57.84872 39625 ft 477 kts 231°
2026-05-05 21:03 52.52248 -57.93143 39640 ft 476 kts 231°
2026-05-05 21:03 52.47978 -58.01430 39642 ft 475 kts 231°
2026-05-05 21:04 52.43702 -58.09701 39645 ft 475 kts 231°
2026-05-05 21:04 52.39424 -58.17948 39639 ft 473 kts 231°
2026-05-05 21:05 52.35168 -58.26127 39641 ft 471 kts 231°
2026-05-05 21:05 52.30918 -58.34267 39640 ft 470 kts 231°
2026-05-05 21:06 52.26666 -58.42385 39642 ft 470 kts 231°
2026-05-05 21:06 52.22400 -58.50505 39640 ft 470 kts 231°
2026-05-05 21:07 52.18176 -58.58517 39649 ft 468 kts 231°
2026-05-05 21:07 52.13927 -58.66551 39649 ft 468 kts 231°
2026-05-05 21:08 52.09675 -58.74566 39655 ft 468 kts 231°
2026-05-05 21:08 52.05417 -58.82567 39654 ft 468 kts 231°
2026-05-05 21:09 52.01163 -58.90535 39661 ft 466 kts 231°
2026-05-05 21:09 51.96908 -58.98479 39661 ft 466 kts 231°
2026-05-05 21:10 51.92642 -59.06418 39664 ft 466 kts 231°
2026-05-05 21:10 51.88379 -59.14327 39670 ft 466 kts 231°
2026-05-05 21:11 51.84110 -59.22223 39675 ft 466 kts 231°
2026-05-05 21:11 51.79837 -59.30101 39675 ft 466 kts 230°
2026-05-05 21:12 51.75561 -59.37959 39677 ft 466 kts 230°
2026-05-05 21:12 51.71274 -59.45815 39677 ft 466 kts 230°
2026-05-05 21:13 51.66984 -59.53651 39676 ft 466 kts 230°
2026-05-05 21:13 51.62715 -59.61425 39684 ft 467 kts 230°
2026-05-05 21:14 51.58410 -59.69239 39691 ft 467 kts 230°
2026-05-05 21:14 51.54098 -59.77043 39687 ft 467 kts 230°
2026-05-05 21:15 51.49776 -59.84840 39681 ft 466 kts 230°
2026-05-05 21:15 51.45463 -59.92595 39687 ft 465 kts 230°
2026-05-05 21:16 51.41149 -60.00331 39697 ft 465 kts 230°
2026-05-05 21:16 51.36836 -60.08040 39697 ft 465 kts 230°
2026-05-05 21:17 51.32512 -60.15745 39694 ft 463 kts 230°
2026-05-05 21:17 51.28219 -60.23371 39698 ft 461 kts 230°
2026-05-05 21:18 51.23926 -60.30975 39719 ft 460 kts 230°
2026-05-05 21:18 51.19667 -60.38497 39720 ft 460 kts 230°
2026-05-05 21:19 51.15369 -60.46064 39700 ft 459 kts 230°
2026-05-05 21:19 51.11096 -60.53564 39713 ft 455 kts 230°
2026-05-05 21:20 51.06865 -60.60969 39710 ft 455 kts 230°
2026-05-05 21:20 51.02582 -60.68445 39712 ft 454 kts 230°
2026-05-05 21:21 50.98351 -60.75808 39711 ft 454 kts 230°
2026-05-05 21:21 50.94104 -60.83175 39717 ft 451 kts 230°
2026-05-05 21:22 50.89865 -60.90507 39718 ft 451 kts 230°
2026-05-05 21:22 50.85627 -60.97819 39718 ft 451 kts 230°
2026-05-05 21:23 50.81380 -61.05123 39714 ft 451 kts 230°
2026-05-05 21:23 50.77147 -61.12384 39712 ft 448 kts 230°
2026-05-05 21:24 50.72922 -61.19608 39716 ft 447 kts 229°
2026-05-05 21:24 50.68700 -61.26807 39716 ft 447 kts 229°
2026-05-05 21:25 50.64471 -61.33998 39726 ft 447 kts 229°
2026-05-05 21:25 50.60239 -61.41174 39718 ft 446 kts 229°
2026-05-05 21:26 50.56023 -61.48302 39716 ft 445 kts 229°
2026-05-05 21:26 50.51834 -61.55364 39716 ft 445 kts 229°
2026-05-05 21:27 50.47610 -61.62466 39709 ft 445 kts 229°
2026-05-05 21:27 50.43381 -61.69555 39703 ft 444 kts 229°
2026-05-05 21:28 50.39158 -61.76616 39696 ft 444 kts 229°
2026-05-05 21:28 50.34929 -61.83665 39694 ft 443 kts 229°
2026-05-05 21:29 50.30695 -61.90704 39693 ft 443 kts 229°
2026-05-05 21:29 50.26462 -61.97721 39684 ft 443 kts 229°
2026-05-05 21:30 50.22230 -62.04718 39689 ft 443 kts 229°
2026-05-05 21:30 50.17994 -62.11701 39688 ft 443 kts 229°
2026-05-05 21:31 50.13786 -62.18620 39689 ft 443 kts 229°
2026-05-05 21:31 50.09539 -62.25583 39669 ft 443 kts 229°
2026-05-05 21:32 50.05291 -62.32530 39664 ft 443 kts 228°
2026-05-05 21:32 50.01042 -62.39459 39664 ft 443 kts 228°
2026-05-05 21:33 49.96776 -62.46397 39656 ft 443 kts 228°
2026-05-05 21:33 49.92544 -62.53260 39655 ft 443 kts 228°
2026-05-05 21:34 49.88279 -62.60158 39647 ft 442 kts 228°
2026-05-05 21:34 49.84020 -62.67028 39647 ft 441 kts 228°
2026-05-05 21:35 49.79759 -62.73883 39650 ft 441 kts 228°
2026-05-05 21:35 49.75496 -62.80722 39653 ft 441 kts 228°
2026-05-05 21:36 49.71255 -62.87506 39645 ft 440 kts 228°
2026-05-05 21:36 49.67010 -62.94280 39653 ft 438 kts 228°
2026-05-05 21:37 49.62764 -63.01037 39659 ft 438 kts 228°
2026-05-05 21:37 49.58517 -63.07778 39658 ft 438 kts 228°
2026-05-05 21:38 49.54261 -63.14516 39670 ft 438 kts 228°
2026-05-05 21:38 49.50014 -63.21221 39674 ft 437 kts 228°
2026-05-05 21:39 49.46482 -63.26783 39672 ft 437 kts 228°
2026-05-05 21:39 49.41533 -63.34556 39672 ft 437 kts 227°
2026-05-05 21:40 49.37991 -63.40105 39671 ft 437 kts 228°
2026-05-05 21:40 49.33747 -63.46737 39649 ft 434 kts 228°
2026-05-05 21:41 49.29519 -63.53327 39652 ft 433 kts 228°
2026-05-05 21:41 49.25300 -63.59887 39647 ft 433 kts 228°
2026-05-05 21:42 49.21066 -63.66455 39641 ft 433 kts 228°
2026-05-05 21:42 49.16844 -63.72986 39638 ft 432 kts 227°
2026-05-05 21:43 49.12614 -63.79511 39637 ft 431 kts 227°
2026-05-05 21:43 49.08389 -63.86013 39632 ft 431 kts 227°
2026-05-05 21:44 49.04160 -63.92504 39637 ft 431 kts 227°
2026-05-05 21:44 48.99952 -63.98947 39620 ft 431 kts 227°
2026-05-05 21:45 48.95718 -64.05412 39612 ft 430 kts 227°
2026-05-05 21:45 48.91484 -64.11862 39598 ft 430 kts 227°
2026-05-05 21:46 48.87253 -64.18289 39588 ft 430 kts 227°
2026-05-05 21:46 48.83015 -64.24712 39578 ft 430 kts 227°
2026-05-05 21:47 48.78755 -64.31153 39566 ft 433 kts 227°
2026-05-05 21:47 48.74477 -64.37604 39561 ft 434 kts 227°
2026-05-05 21:48 48.70213 -64.44016 39560 ft 434 kts 227°
2026-05-05 21:48 48.65917 -64.50460 39566 ft 434 kts 227°
2026-05-05 21:49 48.61620 -64.56891 39574 ft 435 kts 227°
2026-05-05 21:49 48.57319 -64.63310 39587 ft 435 kts 227°
2026-05-05 21:50 48.53013 -64.69721 39611 ft 435 kts 227°
2026-05-05 21:50 48.48698 -64.76129 39623 ft 435 kts 227°
2026-05-05 21:51 48.44403 -64.82488 39619 ft 431 kts 227°
2026-05-05 21:51 48.40130 -64.88808 39619 ft 431 kts 227°
2026-05-05 21:52 48.33711 -64.98278 39610 ft 431 kts 227°
2026-05-05 21:53 48.29422 -65.04580 39604 ft 431 kts 227°
2026-05-05 21:53 48.25130 -65.10865 39604 ft 431 kts 227°
2026-05-05 21:54 48.20863 -65.17098 39628 ft 431 kts 227°
2026-05-05 21:54 48.16562 -65.23367 39629 ft 431 kts 227°
2026-05-05 21:55 48.12263 -65.29616 39626 ft 429 kts 227°
2026-05-05 21:55 48.07988 -65.35815 39629 ft 428 kts 227°
2026-05-05 21:56 48.03705 -65.42009 39632 ft 427 kts 227°
2026-05-05 21:56 47.99431 -65.48176 39629 ft 427 kts 227°
2026-05-05 21:57 47.95146 -65.54344 39629 ft 428 kts 227°
2026-05-05 21:57 47.90888 -65.60465 39631 ft 429 kts 227°
2026-05-05 21:58 47.86584 -65.66635 39646 ft 430 kts 227°
2026-05-05 21:58 47.82266 -65.72803 39631 ft 430 kts 226°
2026-05-05 21:59 47.77953 -65.78952 39609 ft 429 kts 227°
2026-05-05 21:59 47.73642 -65.85088 39603 ft 428 kts 227°
2026-05-05 22:00 47.69334 -65.91205 39600 ft 428 kts 227°
2026-05-05 22:00 47.65057 -65.97263 39607 ft 428 kts 227°
2026-05-05 22:01 47.60794 -66.03286 39606 ft 427 kts 227°
2026-05-05 22:01 47.56499 -66.09335 39612 ft 426 kts 227°
2026-05-05 22:02 47.52205 -66.15371 39627 ft 426 kts 227°
2026-05-05 22:02 47.47901 -66.21404 39636 ft 426 kts 227°
2026-05-05 22:03 47.43601 -66.27422 39626 ft 426 kts 226°
2026-05-05 22:03 47.39301 -66.33425 39633 ft 424 kts 226°
2026-05-05 22:04 47.35039 -66.39362 39640 ft 424 kts 226°
2026-05-05 22:04 47.30740 -66.45332 39643 ft 425 kts 226°
2026-05-05 22:05 47.26434 -66.51299 39632 ft 425 kts 226°
2026-05-05 22:05 47.22121 -66.57263 39640 ft 425 kts 226°
2026-05-05 22:06 47.17806 -66.63217 39641 ft 425 kts 226°
2026-05-05 22:06 47.13485 -66.69164 39637 ft 425 kts 226°
2026-05-05 22:07 47.09161 -66.75100 39636 ft 425 kts 226°
2026-05-05 22:07 47.04835 -66.81023 39656 ft 425 kts 226°
2026-05-05 22:08 47.00534 -66.86902 39645 ft 426 kts 226°
2026-05-05 22:08 46.96197 -66.92816 39646 ft 426 kts 226°
2026-05-05 22:09 46.91855 -66.98724 39639 ft 426 kts 226°
2026-05-05 22:09 46.87459 -67.04586 39638 ft 428 kts 222°
2026-05-05 22:10 46.82755 -67.09943 39643 ft 429 kts 221°
2026-05-05 22:10 46.78015 -67.15238 39641 ft 429 kts 221°
2026-05-05 22:11 46.73269 -67.20516 39637 ft 429 kts 220°
2026-05-05 22:11 46.68510 -67.25794 39638 ft 430 kts 220°
2026-05-05 22:12 46.63774 -67.31032 39640 ft 430 kts 220°
2026-05-05 22:12 46.59006 -67.36296 39646 ft 430 kts 220°
2026-05-05 22:13 46.54237 -67.41548 39645 ft 430 kts 220°
2026-05-05 22:13 46.49468 -67.46788 39639 ft 430 kts 220°
2026-05-05 22:14 46.44696 -67.52019 39641 ft 430 kts 220°
2026-05-05 22:14 46.39922 -67.57241 39643 ft 430 kts 220°
2026-05-05 22:15 46.35150 -67.62448 39651 ft 429 kts 220°
2026-05-05 22:15 46.30387 -67.67636 39652 ft 428 kts 220°
2026-05-05 22:16 46.25621 -67.72814 39654 ft 428 kts 220°
2026-05-05 22:16 46.20885 -67.77948 39647 ft 428 kts 220°
2026-05-05 22:17 46.16118 -67.83105 39655 ft 429 kts 220°
2026-05-05 22:17 46.11341 -67.88261 39655 ft 429 kts 220°
2026-05-05 22:18 46.06569 -67.93400 39654 ft 429 kts 220°
2026-05-05 22:18 46.01779 -67.98546 39657 ft 429 kts 219°
2026-05-05 22:19 45.96993 -68.03677 39669 ft 429 kts 219°
2026-05-05 22:19 45.92207 -68.08796 39664 ft 429 kts 219°
2026-05-05 22:20 45.87405 -68.13921 39659 ft 429 kts 219°
2026-05-05 22:20 45.82612 -68.19026 39686 ft 429 kts 219°
2026-05-05 22:21 45.77810 -68.24129 39686 ft 429 kts 219°
2026-05-05 22:21 45.73037 -68.29190 39694 ft 429 kts 219°
2026-05-05 22:22 45.68228 -68.34279 39702 ft 430 kts 219°
2026-05-05 22:22 45.63419 -68.39358 39710 ft 429 kts 219°
2026-05-05 22:23 45.58612 -68.44422 39709 ft 430 kts 219°
2026-05-05 22:23 45.53805 -68.49475 39692 ft 429 kts 219°
2026-05-05 22:24 45.48989 -68.54527 39693 ft 430 kts 219°
2026-05-05 22:24 45.44193 -68.59541 39697 ft 430 kts 219°
2026-05-05 22:25 45.39362 -68.64584 39701 ft 430 kts 219°
2026-05-05 22:25 45.34534 -68.69614 39700 ft 430 kts 219°
2026-05-05 22:26 45.29696 -68.74646 39713 ft 431 kts 219°
2026-05-05 22:26 45.24845 -68.79678 39713 ft 432 kts 219°
2026-05-05 22:27 45.19995 -68.84701 39718 ft 432 kts 219°
2026-05-05 22:27 45.15144 -68.89713 39715 ft 432 kts 219°
2026-05-05 22:28 45.11097 -68.93886 39720 ft 432 kts 219°
2026-05-05 22:28 45.06230 -68.98893 39717 ft 433 kts 219°
2026-05-05 22:29 45.01432 -69.03820 39721 ft 433 kts 219°
2026-05-05 22:29 44.96543 -69.08830 39733 ft 435 kts 219°
2026-05-05 22:30 44.91670 -69.13813 39728 ft 435 kts 219°
2026-05-05 22:30 44.86756 -69.18827 39727 ft 435 kts 219°
2026-05-05 22:31 44.81848 -69.23824 39722 ft 436 kts 219°
2026-05-05 22:31 44.76932 -69.28818 39720 ft 436 kts 219°
2026-05-05 22:32 44.72001 -69.33816 39721 ft 436 kts 219°
2026-05-05 22:32 44.67081 -69.38793 39710 ft 436 kts 219°
2026-05-05 22:33 44.62150 -69.43770 39710 ft 437 kts 219°
2026-05-05 22:33 44.57210 -69.48746 39707 ft 437 kts 219°
2026-05-05 22:34 44.52298 -69.53684 39703 ft 437 kts 219°
2026-05-05 22:34 44.47346 -69.58650 39702 ft 438 kts 219°
2026-05-05 22:35 44.42391 -69.63609 39707 ft 438 kts 219°
2026-05-05 22:35 44.37426 -69.68568 39739 ft 438 kts 219°
2026-05-05 22:36 44.32457 -69.73519 39728 ft 438 kts 219°
2026-05-05 22:36 44.27485 -69.78464 39749 ft 439 kts 219°
2026-05-05 22:37 44.22507 -69.83404 39749 ft 439 kts 219°
2026-05-05 22:37 44.17549 -69.88314 39774 ft 439 kts 219°
2026-05-05 22:38 44.12562 -69.93242 39774 ft 439 kts 219°
2026-05-05 22:38 44.07576 -69.98158 39772 ft 439 kts 219°
2026-05-05 22:39 44.02580 -70.03074 39790 ft 439 kts 219°
2026-05-05 22:39 43.97585 -70.07980 39781 ft 441 kts 218°
2026-05-05 22:40 43.92567 -70.12896 39773 ft 441 kts 218°
2026-05-05 22:40 43.87546 -70.17806 39769 ft 442 kts 218°
2026-05-05 22:41 43.82524 -70.22706 39745 ft 441 kts 218°
2026-05-05 22:41 43.77490 -70.27608 39760 ft 443 kts 218°
2026-05-05 22:42 43.72442 -70.32514 39760 ft 443 kts 218°
2026-05-05 22:42 43.67395 -70.37407 39746 ft 443 kts 218°
2026-05-05 22:43 43.62624 -70.42024 39748 ft 444 kts 218°
2026-05-05 22:43 43.58891 -70.45631 39749 ft 445 kts 218°
2026-05-05 22:44 43.53821 -70.50519 39754 ft 445 kts 218°
2026-05-05 22:44 43.48743 -70.55405 39742 ft 445 kts 218°
2026-05-05 22:45 43.43610 -70.60221 39747 ft 448 kts 214°
2026-05-05 22:45 43.37873 -70.63704 39748 ft 454 kts 204°
2026-05-05 22:46 43.31910 -70.66613 39739 ft 454 kts 204°
2026-05-05 22:46 43.25946 -70.69530 39749 ft 455 kts 204°
2026-05-05 22:47 43.20026 -70.72429 39741 ft 455 kts 204°
2026-05-05 22:47 43.14028 -70.75364 39740 ft 455 kts 204°
2026-05-05 22:48 43.08108 -70.78256 39740 ft 455 kts 204°
2026-05-05 22:48 43.02149 -70.81161 39740 ft 455 kts 204°
2026-05-05 22:49 42.96172 -70.84069 39735 ft 455 kts 204°
2026-05-05 22:49 42.90205 -70.86966 39756 ft 455 kts 204°
2026-05-05 22:50 42.84246 -70.89854 39790 ft 455 kts 203°
2026-05-05 22:50 42.78279 -70.92737 39800 ft 455 kts 203°
2026-05-05 22:51 42.72299 -70.95623 39805 ft 456 kts 203°
2026-05-05 22:51 42.66308 -70.98507 39816 ft 456 kts 203°
2026-05-05 22:52 42.60380 -71.01356 39807 ft 456 kts 203°
2026-05-05 22:52 42.54380 -71.04233 39812 ft 457 kts 203°
2026-05-05 22:53 42.48375 -71.07107 39834 ft 457 kts 203°
2026-05-05 22:53 42.42378 -71.09970 39823 ft 457 kts 203°
2026-05-05 22:54 42.36367 -71.12835 39832 ft 458 kts 203°
2026-05-05 22:54 42.30391 -71.15677 39851 ft 458 kts 203°
2026-05-05 22:55 42.24427 -71.18508 39841 ft 458 kts 203°
2026-05-05 22:55 42.18409 -71.21359 39868 ft 459 kts 203°
2026-05-05 22:56 42.12377 -71.24210 39874 ft 459 kts 203°
2026-05-05 22:56 42.06350 -71.27054 39873 ft 459 kts 203°
2026-05-05 22:57 42.00313 -71.29896 39884 ft 460 kts 203°
2026-05-05 22:57 41.94268 -71.32737 39887 ft 460 kts 203°
2026-05-05 22:58 41.88224 -71.35571 39869 ft 460 kts 203°
2026-05-05 22:58 41.82169 -71.38405 39914 ft 461 kts 203°
2026-05-05 22:59 41.76151 -71.41225 39914 ft 461 kts 204°
2026-05-05 22:59 41.70525 -71.45111 39537 ft 448 kts 219°
2026-05-05 22:59 41.68077 -71.47705 38775 ft 450 kts 223°
2026-05-05 23:00 41.63265 -71.53147 36849 ft 458 kts 223°
2026-05-05 23:00 41.60806 -71.55912 35758 ft 465 kts 223°
2026-05-05 23:00 41.58308 -71.58707 34679 ft 472 kts 223°
2026-05-05 23:01 41.55761 -71.61549 33580 ft 480 kts 224°
2026-05-05 23:01 41.53179 -71.64423 32467 ft 485 kts 223°
2026-05-05 23:01 41.50579 -71.67310 31501 ft 486 kts 223°
2026-05-05 23:01 41.48008 -71.70162 30615 ft 487 kts 223°
2026-05-05 23:02 41.45411 -71.73038 29589 ft 479 kts 223°
2026-05-05 23:02 41.42851 -71.75868 28114 ft 479 kts 223°
2026-05-05 23:02 41.40320 -71.78666 27192 ft 466 kts 223°
2026-05-05 23:02 41.37835 -71.81409 26490 ft 462 kts 223°
2026-05-05 23:03 41.35367 -71.84133 25826 ft 458 kts 223°
2026-05-05 23:03 41.32927 -71.86824 25163 ft 454 kts 222°
2026-05-05 23:03 41.30506 -71.89490 24507 ft 449 kts 222°
2026-05-05 23:03 41.28113 -71.92124 23837 ft 445 kts 223°
2026-05-05 23:04 41.25754 -71.94723 23490 ft 434 kts 223°
2026-05-05 23:04 41.23439 -71.97260 23220 ft 430 kts 223°
2026-05-05 23:04 41.21133 -71.99790 22958 ft 429 kts 223°
2026-05-05 23:04 41.18834 -72.02309 22676 ft 428 kts 223°
2026-05-05 23:05 41.16538 -72.04824 22402 ft 428 kts 222°
2026-05-05 23:05 41.14270 -72.07305 22148 ft 427 kts 222°
2026-05-05 23:05 41.12000 -72.09840 21870 ft 424 kts 225°
2026-05-05 23:05 41.10095 -72.12751 21348 ft 413 kts 239°
2026-05-05 23:06 41.08870 -72.16145 20738 ft 406 kts 251°
2026-05-05 23:06 41.07978 -72.19678 20155 ft 402 kts 253°
2026-05-05 23:06 41.07132 -72.23182 19482 ft 400 kts 252°
2026-05-05 23:06 41.06284 -72.26669 18919 ft 395 kts 252°
2026-05-05 23:07 41.05439 -72.30107 18300 ft 391 kts 252°
2026-05-05 23:07 41.04599 -72.33508 17599 ft 387 kts 252°
2026-05-05 23:07 41.03764 -72.36872 16951 ft 382 kts 252°
2026-05-05 23:07 41.02936 -72.40198 16307 ft 378 kts 252°
2026-05-05 23:08 41.02116 -72.43487 15667 ft 374 kts 252°
2026-05-05 23:08 41.01302 -72.46746 15021 ft 371 kts 252°
2026-05-05 23:08 41.00496 -72.49965 14399 ft 367 kts 252°
2026-05-05 23:08 40.99695 -72.53160 13914 ft 360 kts 252°
2026-05-05 23:09 40.98926 -72.56223 13769 ft 342 kts 252°
2026-05-05 23:09 40.98192 -72.59142 13643 ft 326 kts 252°
2026-05-05 23:09 40.97493 -72.61919 13502 ft 313 kts 251°
2026-05-05 23:09 40.96783 -72.64730 13353 ft 330 kts 251°
2026-05-05 23:10 40.96060 -72.67590 13278 ft 322 kts 251°
2026-05-05 23:10 40.95370 -72.70325 13153 ft 306 kts 251°
2026-05-05 23:10 40.94708 -72.72941 13006 ft 292 kts 251°
2026-05-05 23:10 40.94088 -72.75396 12868 ft 279 kts 251°
2026-05-05 23:11 40.93462 -72.77797 12437 ft 276 kts 249°
2026-05-05 23:11 40.92527 -72.79986 12094 ft 273 kts 232°
2026-05-05 23:11 40.91125 -72.81668 12034 ft 275 kts 220°
2026-05-05 23:11 40.89579 -72.83167 12012 ft 276 kts 219°
2026-05-05 23:12 40.88025 -72.84642 12015 ft 274 kts 219°
2026-05-05 23:12 40.86492 -72.86098 11633 ft 271 kts 219°
2026-05-05 23:12 40.84958 -72.87563 11123 ft 273 kts 219°
2026-05-05 23:12 40.83420 -72.89033 10684 ft 271 kts 219°
2026-05-05 23:13 40.81905 -72.90481 10382 ft 266 kts 219°
2026-05-05 23:13 40.80913 -72.91430 10223 ft 264 kts 219°
2026-05-05 23:13 40.79423 -72.92856 10001 ft 264 kts 219°
2026-05-05 23:13 40.77934 -72.94280 9766 ft 263 kts 219°
2026-05-05 23:14 40.76457 -72.95692 9533 ft 263 kts 220°
2026-05-05 23:14 40.74966 -72.97118 9307 ft 266 kts 220°
2026-05-05 23:14 40.73468 -72.98550 9084 ft 265 kts 220°
2026-05-05 23:14 40.71980 -72.99970 8863 ft 264 kts 220°
2026-05-05 23:15 40.70506 -73.01391 8640 ft 259 kts 221°
2026-05-05 23:15 40.69275 -73.03068 8411 ft 252 kts 238°
2026-05-05 23:15 40.68623 -73.05185 8217 ft 251 kts 259°
2026-05-05 23:15 40.68512 -73.07489 8013 ft 253 kts 268°
2026-05-05 23:16 40.68536 -73.09797 7784 ft 251 kts 268°
2026-05-05 23:16 40.68566 -73.12059 7574 ft 250 kts 268°
2026-05-05 23:16 40.68589 -73.14351 7358 ft 250 kts 268°
2026-05-05 23:16 40.68607 -73.16623 7154 ft 247 kts 268°
2026-05-05 23:17 40.68621 -73.18876 6947 ft 246 kts 268°
2026-05-05 23:17 40.68632 -73.21133 6762 ft 246 kts 268°
2026-05-05 23:17 40.68747 -73.23388 6552 ft 250 kts 279°
2026-05-05 23:17 40.69536 -73.25451 6358 ft 258 kts 302°
2026-05-05 23:18 40.70719 -73.27244 6166 ft 260 kts 306°
2026-05-05 23:18 40.71963 -73.28970 5961 ft 259 kts 307°
2026-05-05 23:18 40.73205 -73.30681 5787 ft 259 kts 307°
2026-05-05 23:18 40.74455 -73.32404 5562 ft 259 kts 307°
2026-05-05 23:19 40.75704 -73.34119 5373 ft 259 kts 307°
2026-05-05 23:19 40.76880 -73.35886 5171 ft 253 kts 297°
2026-05-05 23:19 40.77522 -73.37979 5007 ft 243 kts 276°
2026-05-05 23:19 40.77678 -73.40167 4782 ft 239 kts 268°
2026-05-05 23:20 40.77713 -73.42365 4584 ft 239 kts 267°
2026-05-05 23:20 40.77737 -73.44505 4379 ft 229 kts 267°
2026-05-05 23:20 40.77958 -73.46554 4168 ft 225 kts 281°
2026-05-05 23:20 40.78490 -73.48463 3948 ft 217 kts 281°
2026-05-05 23:21 40.78622 -73.50324 3737 ft 199 kts 253°
2026-05-05 23:21 40.78108 -73.51953 3526 ft 189 kts 241°
2026-05-05 23:21 40.77527 -73.53477 3361 ft 183 kts 242°
2026-05-05 23:21 40.76975 -73.54960 3171 ft 177 kts 242°
2026-05-05 23:22 40.76449 -73.56400 2992 ft 175 kts 242°
2026-05-05 23:22 40.75950 -73.57809 2814 ft 166 kts 242°
2026-05-05 23:22 40.75488 -73.59173 2610 ft 159 kts 242°
2026-05-05 23:22 40.75057 -73.60487 2421 ft 153 kts 242°
2026-05-05 23:23 40.74652 -73.61765 2270 ft 150 kts 242°
2026-05-05 23:23 40.74198 -73.63000 2103 ft 150 kts 238°
2026-05-05 23:23 40.73701 -73.64207 1973 ft 150 kts 237°
2026-05-05 23:23 40.73190 -73.65399 1835 ft 146 kts 237°
2026-05-05 23:24 40.72717 -73.66523 1679 ft 135 kts 237°
2026-05-05 23:24 40.72272 -73.67605 1604 ft 135 kts 237°
2026-05-05 23:24 40.71818 -73.68710 1593 ft 138 kts 237°
2026-05-05 23:24 40.71298 -73.69774 1578 ft 138 kts 229°
2026-05-05 23:25 40.70662 -73.70652 1535 ft 126 kts 221°
2026-05-05 23:25 40.69966 -73.71280 1343 ft 117 kts 210°
2026-05-05 23:25 40.69264 -73.71768 1149 ft 114 kts 209°
2026-05-05 23:25 40.68588 -73.72298 959 ft 115 kts 212°
2026-05-05 23:26 40.67887 -73.72875 799 ft 118 kts 209°
2026-05-05 23:26 40.67184 -73.73431 632 ft 118 kts 207°
2026-05-05 23:26 40.66476 -73.73960 477 ft 117 kts 205°
2026-05-05 23:26 40.65782 -73.74516 361 ft 116 kts 206°
2026-05-05 23:27 40.65091 -73.75048 199 ft 114 kts 204°
2026-05-05 23:27 40.64423 -73.75567 56 ft 111 kts 206°
2026-05-05 23:27 40.63811 -73.76045 30 ft 97 kts 205°
2026-05-05 23:27 40.63360 -73.76396 28 ft 49 kts 211°
2026-05-05 23:28 40.63190 -73.76528 28 ft 21 kts 210°
2026-05-05 23:28 40.63076 -73.76627 30 ft 20 kts 223°
2026-05-05 23:28 40.62988 -73.76759 27 ft 19 kts 235°
2026-05-05 23:28 40.62928 -73.76918 27 ft 19 kts 261°
2026-05-05 23:29 40.62962 -73.77042 28 ft 13 kts 301°
2026-05-05 23:29 40.63012 -73.77153 31 ft 14 kts 301°
2026-05-05 23:29 40.63067 -73.77273 34 ft 16 kts 300°
2026-05-05 23:29 40.63127 -73.77406 35 ft 19 kts 301°
2026-05-05 23:30 40.63194 -73.77555 36 ft 21 kts 301°
2026-05-05 23:30 40.63275 -73.77732 33 ft 24 kts 300°
2026-05-05 23:30 40.63335 -73.77864 32 ft 16 kts 300°
2026-05-05 23:30 40.63397 -73.78005 30 ft 17 kts 299°
2026-05-05 23:31 40.63455 -73.78138 31 ft 18 kts 300°
2026-05-05 23:31 40.63522 -73.78290 31 ft 16 kts 301°
2026-05-05 23:31 40.63556 -73.78366 33 ft 9 kts 300°
2026-05-05 23:31 40.63591 -73.78443 35 ft 10 kts 300°
2026-05-05 23:32 40.63633 -73.78535 35 ft 14 kts 301°
2026-05-05 23:32 40.63695 -73.78672 35 ft 19 kts 300°
2026-05-05 23:32 40.63767 -73.78833 33 ft 23 kts 301°
2026-05-05 23:32 40.63856 -73.79028 30 ft 27 kts 301°
2026-05-05 23:33 40.63949 -73.79234 26 ft 25 kts 300°
2026-05-05 23:33 40.64000 -73.79348 28 ft 11 kts 301°
2026-05-05 23:33 40.64041 -73.79437 29 ft 13 kts 303°
2026-05-05 23:33 40.64120 -73.79505 29 ft 15 kts 353°
2026-05-05 23:34 40.64230 -73.79501 31 ft 17 kts
2026-05-05 23:34 40.64359 -73.79492 31 ft 20 kts
2026-05-05 23:34 40.64454 -73.79495 30 ft 7 kts 354°
2026-05-05 23:34 40.64511 -73.79502 30 ft 10 kts 355°
2026-05-05 23:35 40.64592 -73.79525 30 ft 15 kts 338°
2026-05-05 23:35 40.64690 -73.79608 30 ft 19 kts 324°
2026-05-05 23:35 40.64815 -73.79698 30 ft 23 kts 348°
2026-05-05 23:35 40.64982 -73.79701 30 ft 25 kts
2026-05-05 23:36 40.65105 -73.79544 30 ft 26 kts 62°
2026-05-05 23:36 40.65167 -73.79398 30 ft 18 kts 60°
2026-05-05 23:36 40.65207 -73.79240 30 ft 18 kts 91°
2026-05-05 23:36 40.65175 -73.79078 30 ft 20 kts 107°
2026-05-05 23:37 40.65150 -73.78968 30 ft 0 kts 105°
2026-05-05 23:37 40.65147 -73.78952 30 ft 8 kts 104°
2026-05-05 23:37 40.65117 -73.78915 30 ft 4 kts 165°
2026-05-05 23:38 40.65095 -73.78914 30 ft 3 kts 180°
2026-05-05 23:38 40.65069 -73.78920 30 ft 5 kts 193°
2026-05-05 23:38 40.65063 -73.78922 30 ft 0 kts 192°
2026-05-05 23:39 40.65061 -73.78924 30 ft 2 kts 199°
2026-05-05 23:39 40.65048 -73.78951 30 ft 3 kts 260°
2026-05-05 23:39 40.65056 -73.78986 30 ft 6 kts 295°
2026-05-05 23:39 40.65070 -73.79012 30 ft 2 kts 308°
2026-05-05 23:40 40.65075 -73.79020 30 ft 0 kts 309°